Wind_Speed
3 3 3 4 4 4 5 5 5 5 6 6 6 7 7 8 8 8 8 9 9 10 10 10 9 9 9 9 9 8 8 9 10 11 11 7 4 5 7 4 3 5 5 7 8 8 8 7 5 2 1 1 0 1 1 1 2 4 3 2 1 2 2 2 4 4 2 5 5 5 2 3 6 6 6 6 6 7 8 7 7 8 7 9 14 19 22 22
5 5 5 5 5 5 5 5 6 6 6 6 7 7 8 8 8 9 9 9 10 10 10 10 10 10 10 10 9 9 9 9 11 13 12 8 4 4 7 6 3 4 5 9 10 9 8 7 5 3 2 1 1 1 1 1 2 3 3 2 2 5 3 2 4 5 3 4 3 4 3 2 5 7 7 6 7 8 7 8 9 10 12 13 17 20 21 21
7 7 6 7 6 6 6 6 6 6 7 7 7 7 8 8 8 9 9 10 10 10 11 11 11 10 10 10 9 9 7 9 12 12 11 11 8 6 8 8 4 3 5 8 10 8 5 4 6 3 1 1 2 1 1 1 2 1 3 1 5 5 3 5 5 5 5 4 2 3 4 4 5 5 5 4 6 6 4 8 9 11 15 17 19 20 21 21
8 8 8 8 8 8 8 8 7 7 8 8 8 8 8 8 8 9 9 10 10 10 11 11 10 10 10 9 9 7 5 9 10 10 11 13 12 9 10 9 6 4 7 9 9 7 3 4 5 3 3 1 3 1 1 1 1 1 3 3 6 3 1 7 6 4 5 4 2 2 3 5 5 3 5 4 4 4 3 6 8 11 17 20 22 22 21 21
10 10 10 10 10 10 10 10 9 9 9 9 9 9 9 8 8 9 9 10 10 10 10 11 10 10 9 9 9 5 3 5 5 9 10 11 11 9 10 10 8 6 9 11 10 7 4 4 5 4 3 1 3 1 2 2 3 1 1 4 4 2 1 7 6 3 3 3 2 1 1 2 2 4 4 4 2 4 5 6 7 11 17 21 24 23 22 22
12 12 12 12 12 12 12 12 11 11 10 10 10 9 9 9 9 9 9 10 10 10 10 10 10 10 9 8 8 5 6 5 3 6 7 9 11 9 9 11 9 7 11 11 10 8 5 5 5 3 2 2 3 2 3 2 3 2 2 4 2 1 2 6 6 2 1 1 2 2 1 2 3 4 4 5 2 5 6 6 9 12 16 20 24 24 23 23
12 13 13 13 14 14 13 13 13 12 12 12 11 11 10 10 9 8 9 10 10 9 9 10 10 9 9 8 8 7 11 11 6 5 2 5 9 9 9 11 10 9 12 12 10 9 6 5 4 3 2 2 4 5 4 2 2 2 1 4 2 2 3 5 6 4 1 1 2 2 2 2 4 3 3 5 3 3 4 7 10 13 16 19 22 23 23 23
11 12 13 14 14 15 15 15 14 14 13 13 13 12 12 11 10 9 8 9 9 9 9 9 9 8 9 8 7 9 13 15 17 14 7 6 5 8 11 12 12 11 13 13 10 8 6 5 3 3 2 4 5 4 4 1 3 1 2 3 3 3 3 4 4 3 1 1 1 3 2 1 2 2 3 5 4 4 5 8 11 14 17 19 21 22 22 22
11 12 12 13 14 15 15 15 15 15 15 15 14 14 13 13 12 10 9 9 9 9 8 8 8 8 9 7 6 9 11 14 20 20 15 9 4 8 14 14 14 13 13 12 9 7 5 3 0 3 4 4 5 4 3 1 1 3 2 3 4 3 3 3 2 2 1 2 1 3 3 2 1 2 4 5 5 6 7 8 11 14 17 18 20 21 21 21
11 11 12 12 13 14 14 15 15 16 16 16 15 15 14 14 13 11 10 9 9 8 8 8 7 7 8 7 7 7 9 12 16 17 17 12 6 7 15 15 14 14 12 11 9 8 4 1 1 3 3 2 4 4 3 3 3 4 2 4 4 3 2 2 2 1 2 2 2 4 3 3 3 4 4 5 7 8 8 10 11 13 15 17 19 20 19 20
11 11 12 12 13 13 13 14 14 15 16 16 16 16 16 15 14 13 11 10 10 8 8 8 7 8 8 8 10 8 8 10 10 12 15 13 9 7 12 15 15 14 12 10 9 7 4 1 2 3 2 3 4 2 4 4 4 3 2 3 4 3 3 3 2 1 1 2 1 3 4 4 5 5 3 7 8 9 9 11 11 11 14 16 18 19 18 18
11 11 12 13 13 13 13 13 13 14 15 16 17 17 16 16 15 14 12 10 10 9 8 7 7 7 7 10 15 14 11 10 7 8 11 12 11 9 12 16 15 13 10 9 8 7 5 2 2 4 4 6 6 1 3 4 3 1 1 1 3 4 4 4 4 2 2 2 1 2 5 7 8 7 5 8 9 10 10 11 11 11 13 15 17 17 17 17
11 12 12 13 13 13 13 13 13 13 14 15 16 17 17 16 15 14 13 11 10 9 8 7 7 7 7 9 13 14 14 14 11 8 8 10 12 13 15 16 15 12 9 8 7 7 6 3 3 5 6 7 4 3 2 1 0 2 1 3 2 5 4 4 6 5 3 3 2 2 4 3 7 9 8 10 11 11 11 12 12 11 12 14 16 16 16 17
11 12 12 13 13 13 13 13 13 13 13 14 15 16 16 15 15 14 13 11 10 9 8 7 6 6 8 10 10 12 13 14 15 12 10 10 11 15 16 16 16 14 10 7 6 7 6 4 5 6 6 5 4 4 4 3 2 2 1 2 2 1 4 4 6 5 4 3 4 4 4 0 2 8 11 11 11 12 11 12 13 12 13 14 15 16 16 16
12 12 12 12 13 13 13 13 13 13 13 13 14 15 15 14 15 14 12 11 9 9 8 7 7 5 9 13 11 12 13 13 15 14 13 11 11 14 16 17 17 14 10 6 5 5 5 4 5 6 3 3 5 6 5 3 3 2 1 1 0 1 4 6 5 5 4 2 5 6 3 1 3 6 11 12 12 12 11 12 13 12 13 14 15 15 15 16
13 12 12 12 12 13 13 13 12 12 12 12 13 13 13 13 13 12 12 11 10 9 7 6 7 6 7 10 9 10 11 12 14 14 15 14 11 11 14 16 14 13 11 7 5 4 4 5 6 6 5 5 6 5 3 3 4 3 2 1 2 1 1 5 5 6 7 3 5 7 4 1 3 7 11 12 13 13 12 12 14 13 13 14 15 15 15 15
15 14 13 12 12 12 12 12 12 11 11 11 11 11 11 12 11 11 11 10 10 8 7 5 4 6 9 8 7 7 7 10 12 13 16 15 12 11 14 15 13 12 11 8 7 6 6 6 6 5 6 6 4 4 4 3 3 3 1 0 1 1 1 2 4 6 8 7 6 8 7 6 1 7 11 12 14 14 13 13 14 14 13 14 15 15 16 16
15 14 14 13 12 12 11 11 11 10 10 10 9 9 9 9 8 9 9 9 7 5 7 7 5 4 9 9 6 4 3 8 11 11 15 16 13 13 14 14 13 13 11 9 9 9 8 7 6 5 5 5 4 6 5 0 1 1 1 2 1 2 1 1 2 3 7 8 8 8 8 9 6 6 10 12 14 14 13 13 14 15 14 14 15 16 16 16
16 15 14 13 12 11 11 11 10 9 9 8 7 6 6 5 4 6 8 9 8 6 3 7 12 3 2 2 5 4 3 5 9 11 14 16 14 13 12 11 13 15 12 9 10 11 9 6 6 6 5 7 5 7 5 3 4 5 5 4 4 4 2 2 2 2 5 6 7 9 9 9 7 6 9 12 15 14 14 13 14 15 15 15 16 16 16 17
16 15 14 13 12 11 11 10 9 8 8 7 5 3 3 4 4 4 8 12 15 13 8 6 13 9 4 3 2 3 4 3 6 10 14 16 16 16 13 13 14 13 11 9 8 11 11 7 7 8 7 6 5 6 7 6 5 6 6 5 5 5 2 2 1 3 4 5 6 7 9 9 7 5 8 13 15 15 15 15 15 16 16 16 17 17 17 17
17 15 14 13 11 11 11 9 8 7 7 6 6 5 3 4 5 2 5 12 14 15 16 13 12 13 9 2 3 3 4 3 6 10 14 16 17 16 15 15 13 10 12 13 7 7 9 9 9 11 7 3 4 5 6 6 6 7 6 6 5 4 2 2 2 3 4 4 5 5 8 10 8 6 8 13 15 15 17 17 17 18 18 17 18 18 18 17
17 15 14 12 11 11 10 8 7 7 6 6 7 7 5 5 6 2 2 8 10 11 16 16 16 17 15 11 6 4 3 5 8 12 15 18 18 16 15 16 13 10 12 13 7 6 8 11 12 10 4 3 6 6 7 8 8 8 6 6 4 3 3 2 4 5 5 3 5 6 8 9 8 8 9 13 16 16 18 19 18 19 19 19 19 19 19 18
17 15 13 11 10 9 9 7 6 6 6 6 7 8 6 6 7 5 4 7 7 9 12 14 16 18 17 15 13 10 7 8 8 13 18 19 19 18 15 14 14 12 12 12 10 8 8 8 11 9 5 6 9 7 8 9 8 7 6 5 4 3 4 1 4 5 5 5 5 6 7 9 7 7 8 13 16 16 17 19 18 19 20 20 20 19 20 20
15 13 11 9 8 7 7 5 4 5 5 6 8 9 7 5 3 2 4 7 6 5 7 9 12 13 13 11 12 15 14 11 8 12 19 21 18 17 15 15 15 12 11 14 15 14 9 3 3 7 8 9 11 9 9 8 7 8 8 7 6 6 8 6 1 1 5 8 6 6 6 4 3 5 7 10 14 14 16 18 19 20 21 21 21 20 20 21
12 11 10 8 6 5 4 2 3 4 5 7 9 10 7 3 0 1 3 7 4 4 4 4 5 6 8 9 10 13 12 13 13 11 18 22 19 15 14 14 14 12 13 15 14 13 12 4 5 6 7 7 10 9 9 8 6 7 7 5 6 7 9 8 5 4 5 5 4 5 5 2 3 4 4 7 11 13 15 18 19 20 21 21 21 21 20 21
11 10 8 6 5 2 1 1 2 6 9 10 10 9 6 2 1 1 3 5 3 4 3 3 2 1 2 6 10 11 7 13 17 12 15 21 19 15 13 11 10 11 12 13 10 8 10 9 8 9 7 7 8 7 8 8 7 6 2 1 5 7 9 9 6 5 5 1 3 4 5 1 2 4 5 6 9 12 14 15 18 20 21 22 22 22 22 22
10 9 7 5 3 1 3 4 7 9 8 10 10 8 4 1 1 0 4 5 2 2 1 3 0 1 0 3 12 12 2 5 14 16 16 19 19 16 13 10 9 10 8 7 8 6 9 12 10 11 11 10 8 7 7 7 8 3 4 2 6 7 9 9 7 5 4 2 3 5 5 5 2 4 6 6 7 9 12 14 17 20 22 23 23 23 23 23
9 8 7 5 3 3 4 8 11 8 7 11 10 6 2 0 1 2 5 3 3 1 1 3 1 0 1 4 12 12 1 5 9 15 18 18 19 15 13 12 11 11 10 7 7 6 8 14 14 13 14 10 9 9 6 7 9 5 1 4 6 6 8 8 6 5 3 4 4 4 4 5 3 4 7 6 5 7 11 13 15 19 22 22 23 23 23 23
10 8 7 6 6 6 8 11 11 8 10 12 8 4 2 1 2 4 5 2 2 0 2 2 2 2 3 5 11 14 7 2 2 8 17 18 18 13 11 14 13 11 13 11 11 5 5 8 11 12 12 9 10 11 8 8 8 3 1 4 5 4 6 5 5 3 3 5 3 2 3 5 3 3 5 5 5 5 8 10 13 18 22 22 22 23 23 23
11 10 9 9 9 9 10 11 11 11 12 10 6 2 1 2 3 5 4 0 1 2 2 2 1 1 4 5 8 12 11 6 2 8 14 15 18 14 7 10 12 9 9 12 14 9 2 3 4 8 10 8 9 10 8 10 8 2 4 7 6 4 3 3 3 3 4 5 2 1 3 5 5 1 3 3 2 1 2 3 6 13 19 21 21 22 23 23
12 13 12 11 11 12 11 9 10 11 10 7 4 2 2 3 4 5 1 1 2 2 2 1 2 0 6 6 4 8 11 8 5 10 12 10 14 15 9 7 8 8 7 8 11 12 9 7 5 8 10 7 7 7 6 8 7 5 6 7 5 4 3 4 4 4 6 5 1 0 4 6 5 2 1 1 1 2 2 1 2 6 13 18 20 21 22 23
11 13 14 13 12 12 9 7 9 9 8 5 3 3 4 4 4 2 2 0 2 3 4 4 5 4 5 7 6 6 8 8 8 9 10 9 10 11 12 10 7 8 9 7 9 11 11 11 10 9 10 10 9 7 7 7 7 7 7 6 6 5 4 5 5 5 6 4 1 1 3 5 6 6 5 4 2 3 3 3 3 4 8 13 18 20 21 22
9 10 11 12 11 10 8 7 8 7 6 5 4 5 5 4 1 2 3 2 2 4 5 6 6 5 5 5 4 5 7 7 9 9 9 11 10 10 14 14 11 10 8 7 8 9 8 9 13 12 10 12 12 8 7 8 8 9 8 6 6 5 5 7 6 5 5 3 1 1 4 5 6 5 4 4 3 1 1 2 3 3 5 9 13 17 20 21
8 8 9 9 9 8 6 6 7 6 6 6 6 5 5 3 1 1 3 3 5 6 6 6 7 3 0 2 2 3 5 5 7 8 7 9 9 9 11 13 13 11 8 7 6 7 8 7 10 13 10 12 15 13 9 7 7 10 8 7 7 5 5 6 4 4 5 2 2 2 3 5 3 1 1 3 3 2 3 3 1 3 5 7 9 12 17 20
8 8 9 9 8 7 5 4 6 6 7 6 7 4 3 2 3 2 3 5 6 7 8 7 7 5 1 4 3 2 2 2 6 7 5 7 8 8 9 10 13 13 9 7 5 4 9 6 5 11 9 10 15 15 13 9 6 7 7 7 8 6 5 5 5 5 5 3 3 5 4 5 4 3 4 5 5 5 5 4 4 6 8 9 9 11 15 18
7 8 9 9 8 6 4 4 5 6 6 7 6 1 1 3 4 4 5 7 6 8 10 7 3 5 2 2 3 2 1 0 6 7 4 5 3 1 3 4 8 13 11 7 4 4 7 4 5 8 8 11 14 15 15 13 7 4 6 8 6 4 5 6 6 4 5 7 5 4 5 6 5 4 3 4 5 4 4 4 5 7 9 11 10 11 14 16
7 7 8 8 6 4 3 3 4 6 6 7 3 2 2 3 5 6 6 8 7 6 9 5 2 5 4 1 4 4 2 2 5 5 3 3 1 6 4 3 1 6 11 9 6 4 5 4 4 6 9 11 11 11 14 17 12 5 6 8 6 4 6 6 5 4 6 7 4 4 7 7 4 3 2 4 5 2 4 3 6 9 10 10 9 10 12 14
6 6 6 7 6 5 2 3 5 5 5 5 1 3 2 3 6 7 8 8 6 5 6 3 3 5 4 2 4 4 1 2 5 4 1 1 1 7 6 2 3 3 6 8 7 3 4 6 3 5 6 7 8 8 10 14 14 9 4 4 5 6 6 6 6 6 6 6 5 5 6 6 5 3 4 5 4 1 5 4 6 9 9 9 9 10 11 13
2 1 3 6 6 5 4 4 4 4 5 2 3 3 1 4 6 9 8 6 4 4 4 3 2 3 4 4 3 4 3 1 5 5 2 3 2 6 8 4 3 6 5 6 9 5 4 7 4 4 3 4 7 8 8 9 11 9 5 4 5 5 5 4 5 6 6 6 6 5 5 5 4 3 3 3 3 2 4 6 5 7 8 7 8 10 11 12
3 2 2 4 5 6 6 4 2 4 2 1 2 2 2 4 6 9 9 6 3 4 4 3 3 3 3 3 3 4 3 2 4 6 4 3 3 5 9 8 6 8 8 7 10 8 7 6 5 3 5 4 6 9 11 10 11 10 8 9 8 5 4 4 5 6 5 5 5 4 5 4 1 0 4 3 2 2 2 6 6 6 7 7 9 9 9 10
5 3 3 2 3 4 3 0 1 0 1 3 3 4 3 4 6 7 8 7 4 4 5 5 5 5 4 4 3 4 3 2 4 4 5 3 2 4 8 10 9 10 8 6 8 8 7 6 8 6 4 7 8 9 10 9 7 9 9 10 10 8 7 7 7 7 5 6 5 4 6 3 3 1 3 1 3 2 2 6 7 8 9 10 10 10 9 9
5 2 2 1 2 3 2 2 2 1 1 3 3 4 4 4 6 7 8 8 5 4 4 4 6 6 5 5 4 4 4 1 2 2 5 6 4 3 7 10 12 11 7 4 3 5 5 4 8 8 7 9 6 6 3 5 5 6 7 8 10 10 9 9 8 7 6 7 5 5 7 2 4 1 0 3 4 4 4 6 9 10 10 11 11 11 10 9
1 2 3 2 2 2 4 1 3 1 3 4 3 3 4 5 7 7 9 9 7 5 4 4 6 6 6 6 6 5 5 3 2 3 3 6 7 5 5 9 13 11 6 5 4 2 2 5 8 7 6 8 6 5 5 4 6 7 7 7 8 8 8 9 8 6 6 7 6 6 7 3 4 2 2 5 5 6 6 7 10 11 11 11 11 11 10 10
5 6 5 6 3 1 3 1 2 3 4 4 4 5 5 7 9 9 9 10 9 6 4 5 6 6 6 6 5 5 6 3 1 3 2 2 4 3 2 5 10 10 7 7 6 3 2 5 7 7 7 8 8 8 8 6 6 7 8 10 11 11 11 10 8 6 6 8 8 7 6 3 4 2 2 5 7 8 9 9 10 11 11 11 12 11 11 11
4 4 6 9 8 5 4 5 3 2 5 4 5 6 3 5 8 9 8 9 10 8 5 5 5 6 6 6 3 4 5 3 1 0 0 2 1 1 1 4 7 8 9 12 11 7 4 4 5 7 8 8 8 7 6 7 8 8 10 12 13 14 15 11 7 7 7 8 9 7 6 4 5 6 3 4 8 9 10 10 10 11 12 11 12 12 11 11
1 2 3 6 10 10 9 7 5 2 2 2 3 5 4 3 6 8 8 7 10 9 7 6 6 6 6 7 5 3 4 3 2 2 1 2 2 1 4 6 6 7 11 16 14 6 3 5 7 8 8 7 7 4 4 4 9 11 13 13 12 13 15 12 8 8 8 7 8 8 8 7 5 6 4 3 7 10 10 11 11 12 12 12 13 12 11 12
2 3 3 3 5 7 7 7 7 4 3 2 1 3 5 4 3 5 7 7 9 9 5 5 8 6 7 9 7 4 5 4 1 2 3 3 3 4 7 6 3 2 8 14 11 5 3 6 6 7 9 11 13 11 8 7 7 9 9 9 10 11 13 13 11 9 9 7 7 8 9 10 9 6 5 4 4 8 11 12 12 12 12 12 14 14 13 13
5 3 4 3 2 3 5 6 7 6 6 5 3 3 5 6 5 5 6 5 7 9 6 3 7 8 8 9 7 6 7 5 1 3 4 4 6 7 5 4 6 3 4 10 8 5 4 6 4 7 10 12 14 14 10 10 10 8 8 8 8 9 11 14 14 13 10 8 8 8 10 11 11 8 2 4 1 6 11 13 13 13 13 14 16 15 14 13
7 5 5 5 4 5 5 4 4 5 7 5 4 4 6 7 7 6 6 5 4 8 8 5 6 9 8 8 7 6 6 5 3 4 6 8 9 7 4 2 4 3 5 6 5 4 3 4 5 9 12 11 11 11 11 12 13 12 12 11 9 8 10 13 15 14 12 11 10 8 8 10 7 4 1 3 1 5 12 14 14 14 14 15 16 15 14 13
7 5 5 5 7 7 5 4 2 3 5 4 3 5 6 6 7 6 5 6 5 6 8 7 8 10 9 7 8 6 5 6 6 6 8 9 8 5 4 2 2 7 9 6 4 4 3 4 6 8 10 10 8 8 11 13 14 14 12 11 10 9 10 12 14 13 12 12 11 8 9 7 3 4 3 1 3 7 13 15 15 15 15 16 16 15 14 13
10 8 5 4 4 4 4 3 2 1 4 5 4 5 5 6 7 6 2 4 6 6 7 9 9 9 8 7 7 7 7 9 11 11 12 11 9 8 6 5 6 9 9 6 5 5 4 5 7 7 6 8 6 5 10 12 13 14 11 7 8 9 9 9 11 11 10 11 12 11 9 4 3 4 4 4 5 9 14 16 15 15 15 16 17 15 14 14
10 9 7 3 2 3 3 2 2 1 3 5 5 5 5 6 7 8 2 2 3 5 6 9 9 8 7 6 7 9 12 15 16 16 16 14 14 14 13 12 12 9 7 6 6 5 3 5 6 5 4 7 7 7 8 11 12 10 6 1 2 5 7 7 7 7 6 7 8 7 3 2 3 1 1 3 6 10 14 16 16 16 15 15 16 16 15 14
Wind_Direction
316 310 307 304 299 295 293 289 286 284 281 279 276 274 272 270 269 267 267 267 267 265 264 263 263 265 268 271 270 273 282 289 294 290 286 303 315 249 242 249 207 204 189 167 170 170 163 172 191 203 182 230 11 27 1 5 288 264 259 251 226 85 81 30 71 93 113 110 96 101 147 161 138 150 160 164 150 132 133 125 120 119 100 104 124 137 144 147
297 298 299 300 301 300 299 296 294 292 289 285 280 277 274 272 271 269 267 267 267 267 267 265 264 263 266 268 273 277 278 287 288 282 279 282 285 252 242 240 210 204 186 172 172 168 168 176 193 193 186 242 84 66 29 51 262 278 293 250 45 37 69 65 66 81 79 81 83 107 126 151 141 146 168 166 138 140 140 133 135 127 118 121 133 142 147 150
289 288 289 290 293 294 295 296 297 298 297 293 289 285 280 277 274 272 269 268 267 268 268 268 267 265 266 265 271 281 288 296 284 271 271 271 269 265 251 240 227 193 163 168 171 170 174 179 190 191 221 291 63 56 67 139 230 317 291 281 62 22 71 109 87 75 66 63 61 93 113 133 136 149 173 162 133 149 147 138 149 142 135 138 143 148 151 154
288 286 285 285 285 286 287 289 292 295 297 296 295 291 287 285 281 278 274 271 269 268 269 269 269 267 267 266 267 277 305 298 269 245 257 268 270 267 249 231 225 185 157 171 174 172 179 174 187 210 259 281 81 100 78 107 253 337 295 349 43 355 108 118 105 78 68 54 37 79 137 130 128 177 177 153 133 135 113 130 153 150 146 148 150 154 156 158
288 287 285 285 284 283 283 284 286 288 290 292 293 293 292 290 287 285 279 276 273 271 272 270 270 269 269 268 266 261 285 287 220 207 242 261 266 263 242 220 211 184 166 176 176 176 181 172 195 229 265 351 82 161 81 83 259 263 51 7 6 316 111 126 123 92 76 51 33 105 152 96 128 212 193 171 131 73 70 105 137 148 152 155 156 158 160 163
288 286 285 285 283 283 282 282 283 283 284 285 287 289 290 290 290 289 285 281 277 276 274 272 272 270 270 266 264 239 230 256 152 183 230 249 255 257 234 208 197 182 173 176 177 186 191 192 211 246 304 25 45 50 68 104 256 253 94 32 2 348 75 136 147 154 132 34 28 48 340 307 225 209 197 204 163 66 62 96 127 142 153 157 158 161 164 166
289 286 284 283 281 281 280 280 280 280 281 281 282 283 285 287 289 289 287 283 281 281 277 276 274 270 272 265 264 244 234 256 259 224 249 265 250 241 218 196 189 179 176 179 182 191 195 209 226 304 325 54 37 41 64 131 229 279 18 41 89 102 75 140 156 165 179 348 19 348 295 258 234 204 187 210 185 94 85 106 128 139 148 156 160 164 167 168
294 290 287 284 281 280 278 278 278 278 278 278 278 279 281 283 285 288 286 284 283 283 280 277 275 270 270 264 267 257 240 246 248 243 262 290 253 214 195 185 188 179 181 186 185 192 196 215 238 312 325 53 32 34 53 164 191 282 11 81 130 110 86 131 154 160 193 286 337 293 251 182 236 222 198 207 178 137 122 120 134 140 146 156 162 166 168 169
299 295 292 289 285 283 280 278 276 276 276 276 276 276 278 279 281 285 283 284 284 284 282 276 275 269 265 260 262 260 242 239 244 244 250 268 283 201 185 182 188 180 186 191 189 197 196 215 273 333 334 39 25 31 35 305 111 26 38 126 150 130 106 126 145 157 211 245 273 267 213 163 215 229 210 205 180 150 141 137 141 144 150 158 163 167 169 170
301 298 295 293 290 287 284 280 277 276 275 275 275 275 276 276 278 282 282 283 282 284 283 272 270 263 260 254 247 249 246 248 248 245 243 247 262 204 186 189 191 183 189 192 194 197 195 225 32 339 308 0 6 35 32 347 28 33 64 132 151 150 141 158 155 165 232 219 245 263 227 174 188 230 209 172 173 163 153 150 150 150 154 160 164 168 171 172
303 299 297 294 292 291 288 285 281 278 276 274 275 274 274 275 277 280 281 281 280 284 281 271 266 257 256 248 240 241 252 257 247 239 238 235 243 221 196 200 196 191 192 191 193 191 192 179 5 309 296 337 330 49 56 11 13 38 85 141 154 167 176 188 185 175 235 201 218 273 257 219 199 233 194 149 165 169 164 159 157 158 157 162 166 168 173 175
307 302 299 295 293 291 288 287 285 282 278 275 274 273 272 273 276 279 279 280 280 282 279 271 261 250 257 254 246 243 248 255 244 233 230 223 227 216 204 207 198 198 200 197 197 193 204 204 297 298 340 333 310 1 51 17 3 68 149 212 163 180 181 180 192 180 200 180 139 277 256 221 205 218 181 154 167 169 169 165 162 163 161 165 168 170 175 177
311 305 300 296 293 291 289 287 285 283 279 277 275 272 271 272 274 276 277 278 279 280 279 272 262 251 251 256 254 249 247 247 239 225 214 212 214 207 209 208 199 201 206 207 205 196 210 229 278 301 323 313 323 7 336 351 312 162 200 289 207 183 159 167 188 174 196 189 149 252 261 207 191 199 176 162 170 170 172 171 168 166 166 170 170 173 177 178
315 308 302 298 294 292 290 288 285 283 280 278 275 271 271 271 271 273 275 276 277 277 276 268 260 249 243 254 268 261 248 241 231 219 211 209 209 211 214 209 202 203 201 205 207 202 218 237 265 282 284 285 328 324 254 207 215 201 206 274 247 150 110 158 192 176 189 168 159 230 266 303 192 184 170 170 174 174 178 175 172 170 169 175 175 177 179 181
319 312 305 300 296 292 290 288 285 282 280 278 276 275 273 270 267 268 271 272 273 272 272 269 254 238 255 265 269 262 247 237 229 217 213 214 211 213 213 208 205 203 197 190 188 195 215 223 245 266 258 254 278 271 244 204 208 230 254 195 164 19 112 146 181 201 219 170 174 224 261 203 188 174 171 176 179 179 182 177 175 175 173 177 180 181 182 182
319 314 308 302 297 293 290 287 284 281 280 277 276 278 277 272 266 263 265 267 269 269 268 274 255 239 271 273 263 264 251 236 231 215 211 213 208 210 206 197 195 196 194 189 188 185 198 219 248 271 270 252 253 259 254 223 190 189 263 44 80 306 122 141 168 207 227 221 205 225 261 279 141 161 176 177 182 186 185 181 179 179 177 179 183 184 184 184
318 314 309 304 300 295 290 284 281 280 278 276 276 279 278 275 267 260 260 259 263 265 258 259 252 248 257 259 257 261 244 233 230 215 210 207 199 197 189 181 183 189 191 198 208 212 217 228 246 248 241 245 256 268 253 222 175 151 209 247 141 269 332 140 173 200 211 215 227 223 242 277 228 159 176 178 187 193 188 186 184 182 180 180 184 186 186 186
319 314 310 307 303 297 291 283 277 274 273 276 277 277 279 276 265 256 251 250 249 253 257 227 192 248 244 232 246 246 231 234 224 211 206 199 192 187 180 177 177 174 180 199 205 212 218 218 234 242 226 226 236 244 242 83 33 20 324 296 289 276 314 72 106 179 205 216 234 233 235 259 249 178 180 182 188 197 194 192 189 186 183 181 185 188 188 189
321 316 312 308 304 299 293 285 275 269 268 270 272 275 282 272 259 254 240 229 209 205 268 197 186 240 317 203 242 236 237 233 213 202 198 193 183 175 176 174 170 173 184 195 188 197 210 209 223 241 234 224 221 237 263 342 335 322 324 311 318 308 303 40 57 161 222 243 240 242 246 256 247 201 193 187 187 197 200 196 193 191 187 184 186 189 189 191
323 319 314 310 307 302 295 287 275 264 259 260 256 244 241 222 221 222 211 220 225 231 266 217 203 249 310 69 62 209 207 201 195 192 189 187 174 167 174 172 173 186 199 202 186 188 209 224 224 230 235 230 221 239 272 305 305 303 303 289 292 291 297 52 76 161 209 262 263 250 251 261 264 230 202 192 189 195 200 199 197 195 193 190 189 189 189 192
324 320 316 312 309 301 294 287 272 257 251 252 230 206 232 247 231 175 189 231 244 244 253 243 229 250 249 196 68 130 180 202 191 186 187 183 173 170 174 175 183 199 208 214 200 174 205 230 232 237 245 237 235 253 269 279 280 278 281 284 283 281 297 59 89 147 181 252 290 280 265 262 263 250 212 197 195 197 199 201 200 198 197 196 194 192 191 191
325 322 317 314 308 297 292 284 266 252 244 243 221 208 254 266 235 261 294 260 255 245 250 246 241 248 243 236 229 180 185 230 193 179 184 182 183 188 179 184 202 206 203 210 204 180 211 233 235 238 250 234 241 260 265 264 270 271 269 273 274 290 309 96 123 150 170 221 289 295 286 276 264 253 223 199 201 203 201 202 201 200 200 199 198 195 194 191
328 323 318 315 303 292 290 281 262 247 236 235 216 205 230 233 222 248 286 278 262 239 245 242 238 245 243 240 234 220 230 241 201 183 187 184 193 201 189 192 211 211 200 203 213 218 221 232 233 223 207 230 238 242 254 260 259 257 256 260 263 294 310 336 130 153 182 219 276 295 289 287 271 246 228 206 205 207 204 205 204 202 203 203 202 199 196 194
331 325 320 315 301 295 294 280 254 238 226 216 195 186 197 205 218 267 265 271 266 226 236 236 237 246 242 235 227 222 227 231 216 191 188 188 194 202 202 203 211 216 211 208 219 232 236 227 221 219 213 234 245 238 242 254 251 243 243 253 272 296 308 315 342 232 228 221 239 273 270 273 251 221 218 202 202 207 206 206 208 207 206 206 207 204 199 198
336 331 328 319 311 309 292 268 245 220 189 178 177 175 177 175 131 22 266 263 238 182 211 220 231 245 232 228 216 214 222 224 223 198 184 193 194 191 202 210 212 218 216 216 222 234 238 188 141 204 211 223 242 241 236 243 253 246 236 251 284 300 307 308 301 286 265 212 188 258 264 158 159 193 194 179 192 205 203 205 209 209 208 208 209 207 204 204
348 348 343 335 334 334 93 95 176 166 154 162 168 166 156 117 29 44 263 258 191 151 172 172 197 196 201 216 193 189 218 221 216 203 185 195 199 197 203 202 211 229 224 221 225 235 239 209 181 207 216 218 235 244 236 235 250 244 186 292 293 298 301 302 294 274 282 266 139 250 280 300 172 173 159 171 195 204 201 207 211 208 209 208 208 207 205 205
2 2 358 357 356 99 112 117 139 133 143 167 163 153 140 64 330 189 249 239 158 112 118 113 87 349 51 184 173 178 192 174 189 194 191 195 196 203 214 197 197 233 235 222 223 225 232 225 215 224 236 240 239 242 222 217 245 241 82 340 290 300 302 299 289 265 276 294 184 217 258 281 256 151 145 175 203 208 205 210 212 209 209 207 207 207 205 204
14 15 17 22 42 107 129 142 139 129 157 166 156 151 147 27 173 205 257 247 102 73 78 102 93 3 104 164 183 197 179 104 175 188 187 194 193 196 217 214 207 218 210 213 227 205 208 226 227 227 237 242 239 248 229 207 240 250 50 312 292 300 299 293 278 255 255 263 225 197 227 262 259 143 145 169 202 222 218 215 213 211 210 207 206 206 205 204
27 32 41 53 73 103 130 143 141 144 160 158 153 151 145 156 176 218 256 279 98 58 49 109 175 163 144 168 198 219 232 235 222 169 173 188 195 200 222 224 226 220 202 215 240 216 174 226 238 231 234 238 235 243 235 220 241 255 242 265 260 267 287 285 264 244 237 250 244 198 228 262 274 162 159 181 210 234 225 218 215 212 210 208 205 205 205 204
42 48 58 69 83 105 124 135 143 150 155 160 159 139 160 195 210 238 241 20 43 40 70 133 113 130 195 196 197 211 220 225 104 145 172 181 190 202 222 223 229 230 206 215 239 246 178 181 243 238 239 252 248 240 230 229 236 230 228 240 233 229 268 275 248 234 238 237 234 265 258 267 274 211 146 158 186 251 229 202 205 208 209 209 206 204 203 202
55 58 66 75 88 102 109 125 144 149 155 164 155 153 225 207 235 263 243 72 338 17 84 206 14 22 225 245 235 198 204 211 158 158 177 176 184 199 207 210 216 223 221 217 232 244 230 213 224 232 237 256 258 234 207 214 219 217 235 242 236 224 234 245 226 227 249 241 159 206 259 259 258 250 54 68 164 240 244 195 178 197 201 205 207 206 202 200
63 65 70 77 87 98 104 131 150 150 158 167 169 210 239 231 232 283 36 80 267 13 19 347 343 321 267 267 261 215 203 206 184 174 184 184 185 195 202 202 191 205 224 219 221 233 232 231 234 228 224 228 240 225 187 190 204 214 227 232 239 236 228 239 231 230 249 238 152 244 251 255 258 259 279 305 292 258 263 259 253 230 202 198 204 206 203 200
68 69 75 78 82 92 105 137 150 157 166 177 213 229 252 265 227 38 8 354 15 8 345 326 327 328 308 278 244 199 202 196 187 192 193 194 197 197 204 209 205 211 226 222 221 227 223 222 224 226 219 213 228 233 195 189 197 209 220 222 232 237 235 243 235 233 244 222 152 268 242 248 253 243 254 306 346 3 297 287 280 256 216 192 195 202 201 198
73 72 79 81 81 88 104 138 155 171 175 190 230 239 250 276 52 40 338 7 5 336 320 320 318 300 282 356 32 162 195 182 180 195 186 190 207 204 201 210 215 222 235 235 233 232 232 222 203 209 209 199 213 231 236 230 207 208 222 228 234 242 246 255 247 247 258 221 159 190 225 254 259 205 252 298 316 259 237 270 256 190 191 180 180 192 197 196
79 81 83 83 83 86 100 142 167 179 180 208 237 249 263 320 29 354 347 359 339 328 323 317 306 277 154 61 53 160 247 200 180 197 193 192 211 210 201 204 209 216 229 235 233 226 242 257 179 190 201 194 203 218 235 253 236 202 213 228 234 240 245 261 267 275 288 273 225 213 233 270 277 277 272 268 269 252 236 242 204 170 173 177 174 182 189 193
85 84 77 72 70 73 98 142 173 177 187 230 241 256 347 24 12 348 359 341 321 329 316 296 315 318 322 54 67 118 293 203 168 191 200 186 198 244 233 212 203 215 224 231 235 223 238 243 144 172 203 207 210 211 210 225 234 185 206 224 223 243 261 262 260 261 270 267 247 221 242 254 246 251 265 268 269 241 197 197 178 154 162 172 172 178 183 187
88 80 68 59 58 61 92 139 159 167 200 250 258 37 15 44 14 346 349 328 309 312 302 290 17 338 308 325 42 89 185 155 149 193 200 166 84 18 346 342 13 235 238 248 254 245 252 252 147 185 213 204 214 225 207 211 224 212 216 225 206 219 257 263 261 243 242 254 245 231 255 257 237 210 200 244 263 197 152 163 148 141 155 165 164 171 177 182
83 82 65 45 50 59 81 142 145 169 219 247 125 80 357 35 24 350 342 330 306 277 292 333 14 332 329 336 34 56 268 201 152 180 116 100 57 22 1 349 30 335 279 266 257 229 264 272 216 201 215 179 183 223 210 202 220 236 258 243 212 220 231 228 245 253 250 257 251 238 253 264 257 233 208 234 280 84 139 147 146 150 156 156 151 157 166 174
65 89 66 34 39 62 79 112 142 204 229 228 116 108 11 23 23 1 352 339 304 284 311 15 5 333 8 0 22 43 355 184 144 150 89 349 5 42 24 14 359 340 327 266 248 236 248 261 231 149 156 169 177 208 211 184 202 231 255 239 221 235 246 227 232 250 257 261 259 248 246 252 242 235 246 267 336 350 152 147 152 157 148 141 138 144 156 166
257 263 84 35 24 67 80 91 156 226 228 75 61 71 48 16 15 16 12 354 325 331 348 6 336 330 16 9 25 41 25 110 127 137 129 11 25 73 37 14 349 337 326 264 246 245 232 236 241 158 139 195 196 199 215 202 192 205 218 222 217 215 243 254 245 245 257 264 263 261 255 249 145 143 289 311 20 340 164 146 152 150 133 123 122 127 143 157
235 251 88 31 358 63 78 50 94 265 84 95 76 55 41 352 356 20 23 8 4 13 0 355 353 351 352 349 24 28 13 118 120 129 129 76 62 87 34 9 344 333 313 254 233 235 228 222 240 233 196 221 207 184 215 235 220 211 212 218 221 219 226 242 242 233 242 258 256 264 267 258 107 152 278 20 92 91 123 140 144 136 122 115 114 116 126 142
229 257 73 320 351 29 284 271 82 51 40 88 76 43 25 344 353 17 21 11 17 24 5 4 4 4 9 357 354 359 352 38 85 109 138 123 115 86 27 4 338 329 317 288 264 243 249 248 241 240 235 237 209 146 188 288 299 268 247 231 227 224 223 231 238 228 227 241 246 261 264 241 103 138 168 88 101 105 107 131 135 126 119 116 115 116 120 129
255 32 31 319 7 357 277 194 121 137 66 82 98 58 39 21 16 25 25 18 17 12 10 29 16 11 26 7 343 345 345 339 46 70 115 132 118 85 27 4 346 340 350 345 334 314 275 250 238 240 244 248 236 185 203 259 284 269 251 243 242 238 233 235 243 245 236 233 229 239 246 210 94 56 61 87 113 131 127 132 132 126 124 123 120 120 125 129
85 70 31 354 3 271 267 24 107 113 92 103 109 83 67 47 30 25 30 29 21 6 4 35 24 8 10 1 354 4 351 328 131 87 74 167 123 80 15 0 349 343 3 360 332 321 283 232 225 229 224 226 225 213 209 216 237 243 229 225 231 235 240 242 242 248 245 238 239 245 246 205 135 134 134 118 132 142 140 138 136 133 132 130 125 125 131 133
113 93 50 27 35 61 55 27 14 84 101 110 87 62 64 73 46 26 28 33 26 14 11 22 2 345 350 346 348 19 8 349 299 113 161 238 213 70 325 347 344 326 334 336 316 292 269 239 235 239 226 213 207 205 210 205 203 220 227 226 226 227 231 234 230 232 235 237 242 247 251 223 153 130 130 139 139 143 145 144 139 135 135 132 127 126 128 130
65 75 66 47 50 64 69 44 11 39 81 98 84 38 19 81 69 30 22 32 29 17 13 21 357 335 351 344 327 4 25 16 339 319 293 281 294 325 303 317 327 312 316 318 309 294 267 248 243 249 256 259 255 268 311 253 207 201 209 218 226 229 230 230 227 228 229 231 233 232 242 245 195 142 129 148 151 152 154 151 142 137 136 131 125 123 124 126
41 23 19 51 66 68 74 54 32 44 40 8 34 16 13 43 65 37 29 28 22 7 2 38 22 3 11 358 332 331 353 347 338 349 334 323 330 312 292 277 248 266 296 302 313 340 297 258 244 253 263 266 271 284 303 289 243 213 208 215 220 223 226 227 227 225 223 229 235 225 222 234 234 199 139 117 144 160 163 160 149 142 138 131 125 123 124 125
68 73 39 48 56 41 58 44 27 47 62 51 49 21 20 37 40 38 31 17 19 12 358 39 33 15 12 359 333 326 340 321 245 31 6 347 342 329 299 207 172 161 283 286 313 354 295 269 281 289 278 266 266 269 266 263 258 249 247 247 234 218 214 221 226 220 211 223 238 224 206 214 238 248 145 82 98 177 167 160 149 142 138 132 128 126 127 128
70 89 69 61 63 51 52 29 6 52 61 48 53 40 26 36 40 34 14 353 23 27 1 351 14 1 352 350 331 328 346 322 299 7 360 341 339 336 323 205 166 51 355 303 304 344 312 272 280 296 295 279 259 248 242 242 243 242 244 244 243 234 216 217 224 218 211 226 238 234 220 214 225 266 18 46 301 175 156 151 146 144 143 138 133 132 132 132
70 74 71 78 82 66 46 22 6 75 59 23 36 44 25 29 34 24 10 357 2 23 3 347 352 340 328 331 316 306 343 335 309 320 328 326 329 335 344 352 353 354 351 339 325 334 321 277 282 301 298 277 246 227 229 230 229 230 232 232 235 241 232 220 220 218 216 225 233 239 245 233 155 87 91 134 197 163 152 154 152 149 150 145 138 136 134 131
79 82 82 87 74 35 11 32 20 61 62 33 23 26 14 23 18 350 346 23 4 4 359 343 338 330 315 310 304 305 330 324 303 301 304 302 300 304 308 307 317 328 332 336 331 315 303 292 297 310 291 268 264 240 223 216 217 219 213 214 229 233 236 227 215 216 221 227 229 232 239 235 93 100 137 158 176 168 160 160 157 153 156 149 139 136 135 133
73 81 76 70 71 17 354 50 33 20 64 34 17 17 357 1 3 337 318 98 30 4 356 335 327 324 312 311 325 331 326 313 300 296 294 286 280 281 277 276 285 293 296 309 313 299 295 296 295 309 287 265 284 298 247 205 201 204 179 120 280 236 234 232 210 210 231 238 236 233 239 23 34 7 163 155 175 175 165 162 160 156 156 148 138 136 137 138
Height
1534 1533 1533 1533 1532 1532 1531 1531 1530 1530 1530 1529 1529 1529 1528 1528 1527 1527 1527 1527 1526 1526 1526 1526 1526 1526 1526 1525 1525 1525 1525 1524 1524 1523 1522 1522 1523 1523 1523 1523 1523 1524 1525 1526 1527 1528 1529 1529 1529 1528 1529 1528 1528 1528 1528 1528 1527 1526 1523 1523 1522 1522 1528 1528 1526 1528 1527 1527 1526 1527 1528 1527 1529 1530 1531 1532 1532 1534 1536 1538 1539 1540 1541 1542 1542 1543 1545 1547
1533 1533 1532 1532 1531 1531 1531 1530 1530 1529 1529 1529 1528 1528 1528 1527 1527 1527 1526 1526 1526 1526 1525 1525 1525 1525 1525 1525 1525 1525 1525 1525 1524 1522 1522 1522 1522 1522 1522 1523 1523 1524 1525 1526 1527 1528 1529 1529 1529 1528 1529 1528 1527 1528 1527 1528 1527 1525 1523 1523 1524 1524 1528 1528 1526 1526 1526 1527 1527 1526 1528 1527 1528 1529 1530 1530 1531 1533 1535 1537 1539 1540 1542 1543 1544 1545 1547 1548
1533 1532 1532 1531 1531 1530 1530 1529 1529 1529 1528 1528 1527 1527 1527 1526 1526 1526 1526 1525 1525 1525 1525 1524 1524 1524 1525 1525 1525 1525 1525 1525 1523 1522 1521 1521 1522 1522 1522 1522 1523 1524 1525 1527 1528 1529 1529 1529 1529 1528 1529 1527 1527 1527 1527 1527 1526 1525 1524 1523 1526 1525 1525 1526 1527 1528 1528 1528 1526 1526 1527 1527 1528 1529 1529 1529 1530 1532 1532 1535 1538 1539 1541 1543 1545 1546 1547 1549
1532 1531 1531 1530 1530 1529 1529 1529 1528 1528 1527 1527 1527 1526 1526 1526 1525 1525 1525 1525 1524 1524 1524 1524 1524 1524 1524 1524 1525 1525 1525 1524 1522 1520 1520 1520 1521 1521 1521 1522 1523 1524 1525 1528 1528 1529 1529 1529 1529 1528 1528 1526 1526 1527 1526 1527 1526 1525 1525 1525 1526 1525 1525 1527 1529 1529 1529 1529 1528 1527 1527 1526 1528 1529 1528 1528 1531 1532 1530 1532 1536 1538 1541 1543 1545 1547 1548 1550
1531 1530 1530 1529 1529 1528 1528 1528 1527 1527 1527 1526 1526 1525 1525 1525 1525 1524 1524 1524 1524 1523 1523 1523 1523 1523 1523 1523 1524 1524 1526 1525 1519 1518 1520 1520 1520 1520 1520 1522 1523 1524 1525 1528 1528 1529 1529 1529 1529 1528 1527 1524 1524 1525 1525 1526 1526 1525 1524 1525 1525 1524 1525 1528 1529 1530 1530 1530 1529 1528 1527 1527 1528 1529 1528 1528 1532 1532 1530 1532 1535 1537 1540 1542 1544 1547 1548 1550
1530 1529 1529 1528 1528 1528 1527 1527 1526 1526 1526 1525 1525 1525 1524 1524 1524 1524 1523 1523 1523 1523 1523 1522 1522 1523 1523 1523 1523 1524 1526 1523 1517 1517 1519 1519 1519 1519 1520 1521 1523 1524 1525 1527 1528 1528 1528 1528 1528 1526 1524 1523 1523 1523 1525 1526 1526 1526 1524 1524 1525 1525 1526 1528 1529 1530 1530 1530 1529 1529 1529 1528 1528 1528 1528 1528 1529 1531 1532 1533 1535 1537 1540 1542 1544 1546 1548 1550
1529 1528 1528 1527 1527 1526 1526 1526 1525 1525 1525 1525 1524 1524 1524 1523 1523 1523 1523 1522 1522 1522 1522 1522 1522 1522 1522 1522 1523 1523 1523 1519 1517 1517 1518 1518 1519 1519 1519 1521 1522 1524 1525 1527 1528 1528 1528 1528 1526 1524 1522 1522 1523 1523 1525 1526 1526 1526 1525 1524 1526 1527 1527 1528 1529 1530 1530 1530 1530 1530 1530 1529 1528 1528 1529 1529 1529 1531 1533 1534 1536 1538 1540 1542 1544 1546 1549 1550
1528 1527 1527 1526 1526 1525 1525 1525 1524 1524 1524 1523 1523 1523 1523 1522 1522 1522 1522 1521 1521 1521 1521 1521 1521 1521 1522 1522 1522 1522 1520 1518 1517 1517 1518 1518 1518 1518 1519 1521 1522 1524 1525 1526 1527 1527 1528 1527 1526 1525 1522 1522 1523 1523 1524 1526 1525 1525 1526 1526 1527 1528 1528 1528 1529 1530 1530 1530 1531 1531 1529 1529 1529 1529 1529 1529 1529 1531 1533 1534 1536 1538 1540 1542 1544 1546 1548 1551
1527 1526 1525 1525 1524 1524 1524 1523 1523 1523 1522 1522 1522 1522 1522 1521 1521 1521 1521 1521 1520 1520 1520 1520 1520 1521 1521 1521 1522 1521 1517 1516 1516 1516 1517 1518 1518 1518 1519 1520 1522 1523 1525 1526 1527 1527 1527 1526 1526 1525 1523 1522 1523 1523 1523 1526 1526 1524 1525 1526 1527 1528 1528 1529 1529 1530 1530 1530 1531 1530 1528 1529 1529 1529 1529 1528 1529 1531 1533 1535 1536 1537 1540 1542 1544 1546 1548 1550
1526 1525 1524 1524 1523 1523 1522 1522 1522 1521 1521 1521 1520 1520 1520 1520 1520 1520 1520 1520 1519 1519 1519 1520 1520 1520 1520 1520 1521 1519 1514 1514 1515 1515 1517 1518 1518 1518 1519 1521 1522 1523 1525 1526 1527 1527 1527 1527 1526 1526 1524 1522 1522 1523 1523 1524 1525 1524 1524 1526 1527 1528 1528 1529 1529 1529 1530 1530 1531 1530 1528 1528 1529 1529 1529 1528 1528 1531 1532 1534 1536 1537 1539 1541 1543 1546 1548 1550
1525 1524 1523 1522 1522 1521 1521 1520 1520 1520 1519 1519 1519 1519 1519 1519 1519 1519 1519 1519 1519 1519 1519 1519 1519 1519 1519 1519 1519 1516 1513 1514 1514 1514 1516 1517 1518 1518 1519 1520 1521 1523 1525 1526 1527 1527 1527 1527 1527 1526 1524 1522 1521 1522 1523 1523 1524 1523 1524 1526 1526 1527 1528 1528 1528 1529 1529 1529 1530 1529 1528 1528 1529 1529 1527 1527 1528 1530 1531 1533 1535 1536 1538 1540 1542 1545 1547 1549
1524 1523 1522 1521 1521 1520 1519 1519 1518 1518 1518 1517 1517 1517 1517 1518 1518 1518 1518 1518 1518 1518 1518 1518 1518 1518 1518 1518 1517 1514 1513 1514 1514 1514 1515 1516 1518 1519 1520 1521 1522 1524 1525 1526 1527 1527 1527 1527 1527 1526 1524 1523 1521 1521 1524 1524 1523 1524 1524 1526 1526 1525 1527 1527 1526 1528 1527 1528 1528 1529 1531 1529 1529 1528 1525 1526 1528 1529 1530 1532 1534 1535 1537 1540 1541 1544 1546 1548
1523 1522 1521 1520 1519 1518 1518 1518 1517 1517 1516 1516 1516 1515 1516 1516 1517 1517 1517 1517 1517 1517 1517 1517 1517 1518 1518 1517 1513 1512 1513 1513 1513 1514 1515 1516 1517 1518 1519 1520 1522 1524 1525 1526 1527 1527 1528 1527 1527 1526 1526 1524 1521 1522 1524 1522 1523 1524 1523 1525 1525 1525 1527 1526 1524 1526 1526 1527 1527 1529 1534 1530 1526 1526 1524 1526 1527 1528 1530 1531 1532 1534 1536 1539 1540 1543 1544 1546
1521 1520 1519 1518 1518 1517 1517 1516 1516 1515 1515 1515 1514 1514 1514 1515 1515 1515 1516 1516 1516 1517 1517 1517 1517 1517 1518 1514 1511 1511 1511 1511 1512 1513 1514 1515 1516 1517 1518 1519 1521 1523 1524 1526 1526 1527 1527 1527 1527 1526 1525 1524 1522 1522 1521 1520 1521 1522 1525 1526 1524 1527 1529 1525 1523 1525 1526 1527 1525 1529 1534 1529 1525 1524 1523 1525 1526 1527 1529 1529 1531 1533 1535 1537 1539 1541 1543 1545
1520 1519 1518 1517 1516 1516 1515 1515 1514 1514 1514 1513 1513 1512 1513 1513 1514 1514 1515 1515 1516 1516 1516 1516 1516 1517 1516 1512 1510 1509 1509 1510 1510 1511 1513 1514 1515 1516 1517 1519 1521 1522 1524 1525 1525 1526 1526 1527 1527 1524 1523 1523 1522 1522 1519 1519 1520 1520 1530 1532 1525 1526 1528 1524 1523 1523 1526 1526 1523 1528 1533 1528 1525 1523 1522 1525 1526 1526 1527 1528 1530 1531 1533 1536 1538 1540 1541 1543
1518 1517 1516 1515 1514 1514 1513 1513 1512 1512 1512 1511 1511 1511 1511 1512 1512 1513 1514 1514 1515 1515 1515 1516 1515 1517 1515 1510 1508 1508 1508 1509 1509 1510 1512 1513 1515 1516 1517 1518 1520 1522 1523 1525 1525 1526 1526 1526 1525 1523 1523 1522 1520 1520 1520 1522 1522 1520 1526 1530 1527 1526 1525 1526 1525 1521 1523 1525 1523 1527 1531 1528 1523 1522 1522 1523 1525 1525 1526 1527 1529 1530 1532 1534 1537 1538 1540 1542
1517 1516 1514 1513 1513 1512 1511 1511 1510 1510 1510 1510 1510 1510 1510 1510 1511 1512 1512 1513 1513 1513 1515 1515 1515 1517 1512 1507 1507 1507 1507 1507 1508 1509 1510 1512 1514 1515 1516 1518 1520 1522 1523 1524 1525 1526 1526 1525 1524 1523 1521 1520 1517 1519 1525 1528 1526 1522 1522 1524 1525 1523 1522 1527 1527 1521 1521 1525 1526 1525 1528 1527 1520 1518 1521 1522 1523 1524 1524 1526 1527 1529 1531 1533 1535 1537 1538 1540
1515 1514 1513 1512 1511 1510 1510 1509 1509 1509 1509 1509 1509 1509 1509 1509 1510 1510 1511 1511 1512 1513 1514 1513 1516 1516 1509 1505 1506 1506 1506 1506 1506 1508 1509 1511 1513 1514 1516 1517 1519 1521 1523 1524 1524 1524 1525 1522 1522 1521 1519 1519 1519 1521 1527 1528 1525 1525 1525 1524 1523 1520 1519 1524 1525 1521 1520 1523 1526 1525 1526 1525 1518 1515 1518 1520 1521 1523 1523 1525 1526 1527 1530 1532 1534 1535 1537 1539
1513 1512 1511 1510 1509 1508 1508 1507 1507 1507 1507 1507 1508 1508 1508 1509 1509 1509 1509 1510 1510 1511 1510 1509 1511 1511 1506 1505 1506 1505 1505 1506 1506 1508 1509 1509 1512 1514 1516 1518 1519 1520 1521 1521 1521 1521 1522 1521 1523 1524 1522 1520 1519 1519 1520 1520 1520 1523 1523 1523 1525 1523 1519 1519 1520 1518 1518 1522 1523 1523 1522 1519 1514 1513 1515 1517 1519 1521 1522 1523 1525 1526 1528 1530 1532 1533 1535 1537
1511 1510 1509 1508 1507 1507 1506 1506 1506 1506 1506 1507 1507 1507 1508 1508 1508 1507 1508 1508 1506 1506 1505 1505 1505 1505 1504 1505 1505 1505 1505 1505 1506 1507 1508 1509 1511 1514 1515 1517 1518 1518 1518 1517 1518 1517 1519 1523 1524 1522 1518 1515 1514 1515 1515 1515 1517 1520 1522 1522 1522 1522 1520 1516 1517 1516 1516 1521 1520 1516 1517 1515 1512 1510 1510 1514 1517 1518 1520 1521 1523 1524 1526 1527 1529 1531 1533 1535
1509 1508 1507 1506 1505 1505 1504 1504 1504 1505 1505 1505 1506 1507 1507 1506 1505 1504 1505 1504 1502 1503 1503 1503 1504 1504 1504 1504 1505 1505 1505 1505 1506 1507 1507 1509 1511 1512 1513 1514 1515 1517 1514 1512 1514 1516 1519 1523 1520 1513 1510 1510 1512 1513 1514 1516 1517 1519 1521 1521 1519 1519 1517 1513 1515 1516 1515 1521 1518 1513 1516 1514 1510 1508 1506 1510 1513 1514 1516 1518 1520 1522 1523 1525 1526 1529 1531 1533
1507 1506 1504 1504 1503 1503 1503 1503 1503 1503 1504 1504 1505 1505 1506 1505 1504 1504 1504 1502 1500 1501 1501 1501 1502 1502 1502 1504 1504 1504 1505 1504 1504 1506 1506 1508 1511 1510 1510 1511 1512 1513 1510 1511 1515 1519 1522 1521 1514 1508 1507 1510 1513 1513 1515 1517 1518 1519 1518 1521 1521 1517 1513 1513 1516 1515 1515 1521 1520 1514 1516 1513 1507 1505 1503 1505 1508 1509 1512 1514 1517 1519 1521 1522 1524 1526 1529 1531
1505 1503 1503 1502 1501 1501 1501 1501 1502 1502 1503 1503 1503 1504 1505 1505 1504 1505 1505 1503 1499 1498 1498 1499 1499 1499 1500 1502 1503 1503 1504 1502 1502 1504 1505 1507 1508 1507 1508 1509 1509 1509 1509 1512 1516 1520 1521 1515 1507 1505 1509 1513 1515 1514 1516 1517 1517 1518 1518 1520 1521 1514 1513 1519 1519 1516 1515 1517 1517 1517 1518 1512 1505 1504 1502 1502 1504 1506 1509 1511 1514 1516 1518 1520 1521 1524 1526 1529
1503 1501 1501 1500 1500 1500 1500 1500 1501 1501 1502 1502 1502 1503 1503 1504 1504 1505 1505 1501 1497 1495 1496 1497 1497 1497 1498 1499 1500 1502 1502 1501 1501 1501 1503 1505 1505 1506 1506 1505 1508 1509 1508 1510 1513 1515 1514 1507 1503 1505 1510 1513 1516 1515 1516 1519 1517 1514 1514 1517 1517 1513 1513 1515 1514 1515 1514 1513 1515 1517 1520 1513 1506 1506 1503 1500 1502 1504 1507 1509 1511 1513 1515 1518 1519 1521 1524 1526
1501 1500 1500 1499 1499 1499 1499 1499 1499 1500 1501 1501 1502 1503 1503 1504 1504 1504 1504 1500 1496 1494 1494 1495 1495 1496 1496 1497 1498 1499 1500 1500 1499 1499 1500 1502 1504 1505 1505 1504 1507 1509 1508 1508 1511 1513 1509 1504 1506 1510 1511 1512 1516 1515 1514 1517 1517 1514 1511 1510 1512 1512 1512 1510 1510 1514 1516 1516 1515 1515 1522 1518 1505 1505 1503 1499 1502 1503 1504 1505 1507 1510 1512 1514 1517 1518 1521 1523
1501 1500 1499 1498 1498 1498 1498 1499 1499 1500 1501 1501 1503 1502 1503 1504 1503 1504 1503 1499 1494 1492 1492 1494 1494 1495 1495 1495 1496 1499 1500 1497 1495 1499 1500 1501 1503 1503 1504 1505 1505 1506 1505 1505 1508 1510 1505 1502 1505 1510 1512 1513 1515 1515 1511 1512 1517 1518 1511 1506 1508 1510 1511 1510 1510 1515 1518 1518 1514 1511 1521 1521 1508 1504 1503 1500 1502 1502 1502 1503 1503 1506 1508 1510 1513 1515 1518 1520
1501 1499 1498 1498 1497 1498 1498 1498 1499 1500 1501 1502 1502 1502 1504 1503 1503 1504 1503 1501 1497 1490 1491 1494 1494 1494 1494 1494 1495 1498 1500 1494 1492 1497 1497 1500 1502 1502 1505 1504 1505 1506 1501 1505 1513 1509 1503 1505 1507 1509 1512 1513 1515 1514 1508 1508 1517 1518 1509 1506 1509 1509 1511 1510 1509 1514 1514 1512 1513 1510 1514 1520 1512 1505 1502 1500 1503 1502 1501 1501 1500 1501 1504 1506 1509 1511 1514 1517
1501 1499 1498 1498 1497 1497 1498 1498 1500 1500 1501 1502 1502 1503 1504 1502 1504 1503 1503 1507 1501 1490 1490 1493 1493 1493 1493 1495 1495 1493 1493 1492 1492 1494 1495 1499 1501 1501 1504 1500 1502 1505 1501 1508 1516 1506 1500 1507 1508 1509 1513 1513 1511 1508 1503 1507 1515 1511 1504 1506 1508 1508 1509 1507 1507 1511 1509 1512 1519 1511 1509 1519 1513 1501 1500 1501 1503 1504 1500 1497 1497 1497 1499 1502 1505 1508 1510 1513
1501 1500 1498 1498 1497 1498 1498 1499 1500 1501 1502 1502 1502 1504 1503 1503 1505 1501 1502 1507 1498 1488 1491 1492 1492 1494 1493 1494 1494 1492 1490 1491 1492 1492 1494 1498 1499 1500 1502 1499 1498 1501 1501 1507 1509 1501 1499 1503 1502 1504 1509 1509 1505 1502 1500 1505 1510 1504 1502 1506 1505 1505 1506 1505 1507 1509 1510 1518 1522 1511 1508 1519 1514 1497 1497 1503 1502 1501 1496 1491 1490 1492 1495 1498 1501 1505 1507 1510
1502 1500 1499 1499 1498 1499 1499 1500 1501 1501 1502 1502 1503 1503 1502 1504 1503 1502 1508 1507 1494 1489 1491 1491 1491 1492 1492 1492 1492 1490 1490 1490 1490 1492 1495 1496 1498 1499 1500 1499 1499 1499 1502 1504 1504 1499 1498 1501 1501 1502 1503 1502 1499 1498 1498 1502 1503 1502 1504 1506 1505 1506 1506 1506 1506 1506 1517 1526 1520 1510 1507 1515 1518 1500 1491 1496 1494 1490 1489 1487 1486 1487 1491 1496 1498 1501 1504 1507
1503 1502 1501 1500 1500 1500 1501 1502 1502 1502 1503 1503 1503 1503 1503 1503 1499 1503 1509 1501 1493 1491 1489 1489 1490 1489 1490 1491 1490 1489 1489 1489 1488 1492 1495 1494 1497 1499 1499 1502 1502 1504 1506 1506 1504 1500 1498 1503 1502 1500 1500 1499 1499 1500 1499 1499 1500 1503 1507 1506 1509 1512 1511 1513 1511 1511 1528 1531 1517 1509 1505 1512 1522 1506 1487 1485 1483 1481 1484 1485 1485 1485 1487 1492 1494 1497 1500 1503
1504 1503 1502 1502 1502 1501 1502 1503 1503 1503 1503 1503 1503 1503 1503 1502 1501 1503 1501 1494 1496 1496 1490 1491 1490 1487 1488 1488 1488 1487 1488 1490 1488 1489 1491 1492 1496 1497 1498 1500 1502 1509 1513 1508 1506 1502 1500 1500 1498 1497 1499 1499 1502 1503 1502 1502 1502 1505 1507 1508 1517 1523 1525 1529 1525 1522 1528 1525 1511 1508 1509 1514 1516 1500 1485 1482 1478 1477 1479 1481 1482 1483 1484 1488 1491 1494 1496 1500
1505 1505 1503 1503 1503 1503 1503 1503 1503 1504 1503 1503 1504 1501 1501 1505 1506 1502 1496 1495 1499 1496 1491 1492 1488 1486 1488 1487 1486 1485 1486 1489 1487 1487 1488 1489 1493 1494 1494 1493 1493 1503 1508 1503 1504 1504 1502 1498 1495 1498 1498 1496 1501 1504 1505 1504 1503 1506 1506 1510 1520 1527 1537 1543 1532 1525 1526 1518 1508 1507 1512 1516 1508 1491 1481 1479 1476 1476 1477 1479 1482 1482 1483 1486 1488 1491 1494 1496
1506 1505 1505 1504 1504 1504 1504 1503 1504 1504 1503 1504 1503 1501 1503 1509 1506 1500 1498 1498 1496 1493 1490 1490 1487 1486 1486 1487 1486 1484 1487 1489 1486 1487 1488 1489 1494 1494 1493 1493 1491 1496 1499 1499 1501 1502 1506 1503 1493 1494 1495 1493 1496 1498 1497 1495 1497 1500 1496 1501 1511 1515 1528 1537 1530 1528 1526 1516 1512 1513 1515 1513 1505 1491 1478 1475 1475 1475 1477 1479 1480 1483 1484 1485 1487 1489 1492 1494
1507 1506 1506 1505 1505 1505 1504 1504 1504 1503 1504 1504 1501 1501 1506 1508 1504 1501 1502 1499 1496 1495 1491 1488 1487 1486 1485 1486 1486 1483 1485 1489 1487 1487 1489 1490 1493 1492 1491 1493 1492 1493 1498 1503 1500 1496 1505 1501 1485 1484 1487 1487 1493 1493 1489 1493 1498 1496 1490 1499 1507 1501 1506 1517 1516 1515 1516 1516 1515 1512 1509 1499 1488 1480 1472 1472 1475 1473 1476 1478 1478 1482 1483 1484 1487 1488 1490 1492
1508 1507 1507 1506 1506 1505 1504 1504 1504 1503 1504 1502 1500 1503 1505 1506 1505 1503 1503 1500 1499 1498 1494 1489 1489 1490 1489 1489 1488 1485 1483 1485 1486 1489 1489 1488 1490 1491 1489 1489 1489 1491 1494 1499 1498 1496 1503 1497 1482 1484 1487 1484 1488 1487 1486 1495 1500 1496 1497 1502 1497 1489 1495 1509 1513 1507 1511 1523 1515 1502 1501 1492 1482 1481 1473 1473 1476 1473 1475 1477 1476 1480 1482 1483 1486 1486 1489 1491
1509 1508 1508 1507 1506 1505 1505 1504 1503 1504 1503 1500 1502 1506 1505 1504 1505 1503 1502 1500 1499 1498 1496 1495 1494 1496 1495 1492 1491 1490 1486 1485 1489 1491 1491 1490 1494 1496 1495 1491 1491 1491 1491 1493 1494 1492 1497 1496 1484 1485 1490 1484 1483 1484 1482 1485 1489 1495 1502 1496 1487 1491 1496 1504 1516 1516 1518 1526 1513 1499 1501 1496 1493 1493 1481 1476 1478 1474 1474 1475 1474 1478 1481 1482 1484 1486 1488 1490
1509 1509 1509 1508 1507 1506 1505 1504 1504 1504 1502 1500 1505 1509 1505 1504 1504 1503 1501 1500 1499 1497 1496 1497 1497 1496 1495 1494 1494 1492 1488 1490 1493 1493 1494 1495 1499 1501 1499 1497 1496 1494 1491 1494 1497 1491 1494 1501 1489 1480 1486 1484 1481 1487 1489 1485 1484 1489 1493 1486 1487 1505 1509 1506 1516 1523 1523 1526 1515 1502 1500 1497 1494 1492 1483 1480 1479 1475 1475 1477 1476 1477 1479 1481 1483 1486 1488 1490
1510 1509 1509 1509 1508 1507 1506 1505 1505 1504 1501 1502 1507 1508 1506 1505 1504 1503 1502 1501 1499 1498 1497 1499 1498 1495 1495 1495 1495 1492 1490 1492 1493 1495 1500 1502 1502 1501 1500 1500 1499 1497 1495 1495 1497 1492 1493 1504 1497 1481 1482 1485 1484 1490 1494 1492 1488 1488 1489 1487 1487 1499 1504 1503 1507 1510 1515 1522 1518 1510 1505 1498 1487 1481 1479 1480 1477 1474 1476 1478 1477 1477 1477 1480 1483 1485 1488 1490
1510 1508 1508 1509 1508 1507 1506 1506 1505 1502 1502 1504 1507 1507 1507 1506 1504 1503 1503 1501 1499 1499 1499 1499 1498 1497 1497 1495 1494 1493 1493 1493 1493 1496 1501 1502 1502 1502 1500 1501 1501 1498 1497 1495 1495 1492 1491 1500 1502 1488 1482 1487 1489 1488 1487 1487 1488 1491 1495 1495 1492 1493 1495 1498 1499 1496 1502 1514 1517 1518 1515 1498 1479 1474 1476 1476 1476 1475 1474 1475 1477 1476 1477 1480 1483 1485 1488 1490
1510 1507 1508 1510 1508 1508 1507 1505 1504 1503 1503 1506 1507 1507 1509 1508 1506 1504 1504 1502 1500 1500 1500 1499 1498 1498 1499 1497 1495 1495 1494 1494 1495 1496 1499 1501 1503 1504 1502 1502 1502 1499 1497 1496 1494 1492 1490 1495 1499 1493 1489 1489 1484 1476 1475 1476 1477 1482 1488 1489 1490 1491 1495 1505 1509 1497 1494 1503 1507 1512 1516 1497 1475 1472 1474 1473 1475 1475 1472 1473 1476 1476 1479 1482 1484 1486 1488 1490
1509 1507 1508 1509 1508 1508 1506 1505 1506 1505 1505 1507 1509 1510 1510 1510 1507 1505 1504 1503 1501 1500 1499 1500 1500 1499 1500 1501 1499 1497 1496 1496 1497 1497 1499 1500 1502 1504 1503 1503 1502 1498 1496 1495 1492 1489 1488 1491 1495 1493 1488 1482 1474 1470 1474 1476 1473 1475 1479 1478 1480 1483 1488 1503 1511 1500 1494 1498 1495 1501 1510 1495 1473 1470 1471 1471 1473 1475 1474 1474 1475 1477 1481 1483 1485 1487 1488 1490
1509 1508 1510 1510 1509 1508 1506 1506 1507 1507 1507 1510 1511 1511 1511 1510 1509 1507 1506 1505 1504 1503 1502 1502 1502 1502 1503 1503 1501 1500 1499 1499 1499 1499 1500 1501 1500 1502 1503 1503 1503 1498 1496 1497 1494 1490 1490 1493 1495 1494 1486 1478 1472 1471 1473 1475 1477 1481 1481 1476 1477 1479 1480 1486 1491 1490 1494 1498 1495 1502 1510 1495 1475 1471 1472 1472 1473 1475 1476 1476 1476 1479 1482 1484 1486 1487 1488 1490
1511 1511 1511 1510 1509 1508 1506 1507 1508 1508 1511 1511 1511 1511 1512 1512 1511 1510 1509 1509 1507 1506 1505 1505 1505 1504 1504 1503 1503 1503 1502 1503 1502 1500 1502 1503 1501 1502 1502 1503 1503 1499 1498 1501 1498 1495 1497 1495 1494 1497 1498 1493 1488 1485 1483 1481 1483 1484 1482 1478 1477 1478 1479 1481 1481 1486 1495 1495 1491 1501 1507 1492 1477 1474 1473 1473 1474 1474 1476 1477 1478 1480 1482 1484 1486 1487 1488 1490
1511 1511 1512 1511 1510 1509 1509 1510 1510 1510 1512 1512 1512 1513 1512 1512 1514 1513 1512 1511 1511 1509 1508 1508 1507 1506 1504 1503 1503 1503 1503 1504 1504 1501 1501 1502 1500 1501 1502 1502 1503 1500 1499 1500 1497 1497 1499 1496 1493 1497 1501 1501 1498 1494 1488 1482 1481 1481 1479 1477 1476 1476 1479 1483 1485 1493 1500 1494 1489 1496 1499 1486 1475 1476 1476 1474 1474 1475 1476 1478 1479 1480 1483 1485 1486 1487 1489 1490
1510 1511 1512 1512 1512 1511 1513 1515 1513 1511 1512 1513 1514 1516 1514 1513 1515 1515 1513 1513 1513 1511 1510 1509 1508 1506 1505 1504 1504 1504 1504 1504 1504 1503 1502 1502 1500 1500 1501 1501 1501 1501 1501 1500 1495 1493 1497 1496 1492 1492 1493 1491 1488 1484 1476 1472 1475 1478 1477 1477 1477 1476 1476 1480 1487 1493 1494 1492 1491 1491 1490 1485 1480 1479 1481 1477 1474 1476 1476 1477 1479 1481 1483 1485 1486 1488 1489 1490
1512 1515 1516 1515 1515 1514 1515 1516 1515 1514 1514 1515 1517 1519 1517 1515 1515 1515 1515 1515 1515 1514 1511 1510 1510 1509 1510 1509 1508 1506 1505 1504 1505 1505 1505 1504 1502 1501 1500 1499 1500 1502 1503 1500 1493 1492 1498 1498 1491 1489 1488 1484 1480 1478 1474 1473 1474 1474 1475 1476 1475 1475 1476 1479 1485 1486 1483 1491 1496 1487 1483 1488 1484 1478 1479 1479 1475 1475 1475 1476 1478 1481 1483 1485 1485 1487 1489 1490
1515 1519 1521 1519 1519 1518 1518 1519 1519 1517 1516 1517 1519 1520 1519 1517 1518 1519 1518 1517 1516 1515 1513 1512 1513 1512 1512 1513 1511 1509 1508 1506 1506 1507 1506 1506 1504 1501 1499 1498 1499 1502 1502 1499 1494 1493 1497 1497 1491 1488 1487 1482 1477 1476 1475 1476 1476 1474 1475 1476 1474 1474 1476 1479 1480 1477 1478 1488 1491 1482 1480 1487 1482 1473 1473 1476 1474 1472 1474 1476 1478 1481 1483 1485 1485 1487 1490 1491
1518 1521 1522 1521 1522 1522 1523 1523 1521 1519 1519 1520 1521 1522 1521 1521 1522 1522 1521 1519 1518 1518 1517 1517 1517 1515 1513 1513 1513 1512 1512 1512 1510 1509 1508 1508 1507 1504 1502 1500 1498 1499 1500 1498 1494 1493 1497 1496 1492 1491 1489 1481 1475 1474 1474 1475 1476 1475 1474 1474 1472 1472 1472 1475 1476 1472 1473 1479 1478 1474 1479 1482 1478 1472 1471 1472 1472 1470 1472 1476 1479 1481 1483 1484 1485 1488 1490 1491
1521 1522 1523 1523 1523 1525 1525 1524 1522 1520 1521 1522 1523 1524 1524 1523 1524 1524 1523 1522 1521 1520 1520 1520 1519 1518 1515 1515 1514 1513 1513 1514 1515 1513 1510 1510 1509 1506 1505 1504 1499 1498 1499 1498 1495 1494 1498 1498 1491 1490 1493 1484 1473 1470 1471 1472 1473 1473 1473 1470 1470 1472 1471 1471 1473 1470 1472 1476 1474 1474 1480 1479 1474 1472 1471 1472 1472 1471 1472 1476 1478 1481 1483 1484 1485 1487 1490 1492
1523 1524 1524 1523 1525 1527 1527 1525 1523 1521 1523 1525 1526 1527 1526 1525 1526 1525 1524 1524 1525 1523 1523 1522 1521 1519 1516 1515 1515 1513 1512 1513 1514 1512 1511 1511 1510 1508 1507 1505 1502 1502 1501 1501 1500 1496 1496 1498 1490 1492 1501 1490 1472 1469 1469 1467 1469 1472 1473 1473 1472 1473 1472 1470 1469 1468 1472 1476 1476 1478 1482 1480 1474 1472 1472 1472 1471 1470 1471 1474 1477 1481 1482 1483 1485 1488 1490 1492
1525 1526 1526 1525 1526 1528 1527 1525 1523 1524 1528 1531 1530 1529 1529 1527 1526 1526 1524 1524 1525 1525 1525 1524 1522 1520 1517 1515 1515 1514 1515 1514 1513 1511 1510 1510 1508 1507 1507 1504 1503 1505 1503 1502 1503 1498 1496 1499 1495 1498 1506 1492 1474 1471 1467 1466 1475 1478 1475 1476 1475 1473 1472 1470 1468 1468 1470 1473 1476 1479 1480 1477 1473 1470 1471 1471 1469 1469 1470 1472 1476 1479 1481 1483 1485 1488 1490 1492